User: anonymous   Login
Location: Unspecified
(0.0000°N, 0.0000°E)
Time: 01:44:17
(UTC+00:00)
Language:

GALILEO 7 (263) - Orbit

View from above orbital plane
View from above orbital plane
View from above satellite
View from above satellite

Ground track
Ground track

The orbit data is extracted from the following two-line orbital elements,

1 40544U 15017A   17174.44670241 -.00000061 +00000-0 +00000-0 0  9997
2 40544 055.6195 071.8257 0001752 270.5614 089.4513 01.70474736013272
Epoch (UTC): 23 June 2017 10:43:15
Eccentricity: 0.0001752
inclination: 55.6195°
perigee height: 23216 km
apogee height: 23227 km
right ascension of ascending node: 71.8257°
argument of perigee: 270.5614°
revolutions per day: 1.70474736
mean anomaly at epoch: 89.4513°
orbit number at epoch: 1327

The dashed part of the orbit path shows where the satellite is in the earth's shadow,  

DLR